Weather reports worldwide

Advertisment
London/Heathrow Intl, United Kingdom (3772): temperature & dewpoint: 20.03.2019 19:00:00 - 26.03.2019 19:00:00 (GMT)London/Heathrow Intl, United Kingdom (3772): wind speed: 20.03.2019 19:00:00 - 26.03.2019 19:00:00 (GMT)London/Heathrow Intl, United Kingdom (3772): wind direction: 20.03.2019 19:00:00 - 26.03.2019 19:00:00 (GMT)London/Heathrow Intl, United Kingdom (3772): reduced air pressure: 20.03.2019 19:00:00 - 26.03.2019 19:00:00 (GMT)London/Heathrow Intl, United Kingdom (3772): visibility: 20.03.2019 19:00:00 - 26.03.2019 19:00:00 (GMT)London/Heathrow Intl, United Kingdom (3772): sunshine duration: 20.03.2019 19:00:00 - 26.03.2019 19:00:00 (GMT)London/Heathrow Intl, United Kingdom (3772): precipitation: 20.03.2019 19:00:00 - 26.03.2019 19:00:00 (GMT)
Date & Time tt [°C] td [°C] ff [km/h] ff [kn] dd ppp [hPa] vv [km] sd [min] rr [mm]
26.03.2019 19:00:00 10,9 2,1 4 2 - 1033,4 10 0 0,0
26.03.2019 18:00:00 12,4 2,5 8 4 NNW 1032,9 10 48 0,0
26.03.2019 17:00:00 13,1 2,0 11 6 N 1032,6 10 48 0,0
26.03.2019 16:00:00 13,3 2,1 9 5 NNW 1032,5 10 36 0,0
26.03.2019 15:00:00 13,0 3,0 11 6 N - 10 - -
26.03.2019 14:00:00 13,0 3,0 11 6 NW - 10 - -
26.03.2019 13:00:00 12,0 3,0 9 5 N - 10 - -
26.03.2019 12:00:00 12,3 1,7 11 6 N 1034,3 10 54 0,0
26.03.2019 11:00:00 11,1 2,8 13 7 NNW 1034,8 17 60 0,0
26.03.2019 10:00:00 9,4 4,6 11 6 W 1035,1 13 60 0,0
26.03.2019 09:00:00 6,7 2,5 13 7 W 1035,0 10 36 0,0
26.03.2019 08:00:00 4,2 1,6 11 6 W 1035,0 10 24 0,0
26.03.2019 07:00:00 2,3 0,3 9 5 W 1035,2 12 12 0,0
26.03.2019 06:00:00 2,3 0,6 5 3 WNW 1034,9 10 0 0,0
26.03.2019 05:00:00 2,0 -0,1 8 4 WNW 1034,8 10 0 0,0
26.03.2019 04:00:00 2,3 0,4 2 1 - 1034,8 10 0 0,0
26.03.2019 03:00:00 2,0 0,2 8 4 S 1034,9 10 0 0,0
26.03.2019 02:00:00 2,7 0,6 0 0 N 1035,3 10 0 0,0
26.03.2019 01:00:00 4,0 1,2 5 3 WNW 1035,5 10 0 0,0
26.03.2019 00:00:00 5,2 1,3 4 2 NNW 1035,6 10 - 0,0
25.03.2019 23:00:00 6,0 1,4 2 1 ENE 1035,5 17 0 0,0
25.03.2019 22:00:00 7,3 1,4 5 3 ENE 1035,2 10 0 0,0
25.03.2019 21:00:00 8,3 0,9 8 4 NE 1034,9 19 0 0,0
25.03.2019 20:00:00 8,9 0,1 5 3 NNE 1034,3 23 0 0,0
25.03.2019 19:00:00 10,0 0,3 5 3 - 1033,8 10 12 0,0
25.03.2019 18:00:00 11,4 0,1 11 6 N 1033,1 10 60 0,0
25.03.2019 17:00:00 12,2 0,1 13 7 N 1032,8 10 60 0,0
25.03.2019 16:00:00 12,5 -0,5 13 7 N 1032,6 10 60 0,0
25.03.2019 15:00:00 12,8 0,0 13 7 NNE 1032,5 10 54 0,0
25.03.2019 14:00:00 12,8 0,4 15 8 N 1032,5 10 60 0,0
25.03.2019 13:00:00 11,9 0,2 13 7 N 1032,8 10 54 0,0
25.03.2019 12:00:00 11,2 0,4 15 8 NNW 1032,9 26 54 0,0
25.03.2019 11:00:00 10,6 1,0 16 9 N 1032,8 10 54 0,0
25.03.2019 10:00:00 9,7 0,7 16 9 N 1032,4 10 60 0,0
25.03.2019 09:00:00 8,6 1,2 15 8 N 1031,9 10 60 0,0
25.03.2019 08:00:00 7,3 1,7 15 8 NNW 1031,1 10 54 0,0
25.03.2019 07:00:00 5,8 1,3 15 8 NW 1030,4 10 24 0,0
25.03.2019 06:00:00 5,4 1,5 13 7 NW 1029,7 10 0 0,0
25.03.2019 05:00:00 6,0 1,7 13 7 NW 1029,1 10 0 0,0
25.03.2019 04:00:00 6,8 1,9 15 8 NW 1028,6 10 0 0,0
25.03.2019 03:00:00 7,7 2,9 15 8 WNW 1028,5 10 0 0,0
25.03.2019 02:00:00 7,7 2,8 11 6 WNW 1028,7 10 0 0,0
25.03.2019 01:00:00 7,4 2,3 16 9 W 1028,5 10 0 0,0
25.03.2019 00:00:00 5,7 1,6 13 7 W 1029,0 10 - 0,0
24.03.2019 23:00:00 7,4 1,6 11 6 WNW 1029,2 10 0 0,0
24.03.2019 22:00:00 7,8 1,1 16 9 W 1029,5 10 0 0,0
24.03.2019 21:00:00 8,4 0,5 13 7 W 1029,6 10 0 0,0
24.03.2019 20:00:00 9,5 -0,4 9 5 WNW 1029,4 10 0 0,0
24.03.2019 19:00:00 10,3 -0,2 11 6 WNW 1029,0 10 6 0,0
24.03.2019 18:00:00 11,7 0,3 11 6 NW 1028,8 10 60 0,0
24.03.2019 17:00:00 13,1 0,1 16 9 WNW 1028,7 10 60 0,0
24.03.2019 16:00:00 13,6 0,4 18 10 WNW 1028,6 10 60 0,0
24.03.2019 15:00:00 14,2 0,4 21 11 W 1028,8 10 60 0,0
24.03.2019 14:00:00 14,3 2,8 13 7 W 1029,3 25 60 0,0
24.03.2019 13:00:00 13,3 0,9 13 7 WNW 1030,0 10 60 0,0
24.03.2019 12:00:00 12,8 1,1 8 4 NW 1030,7 10 60 0,0
24.03.2019 11:00:00 11,3 1,9 9 5 W 1031,3 10 60 0,0
24.03.2019 10:00:00 10,3 0,9 11 6 WNW 1031,9 10 60 0,0
24.03.2019 09:00:00 8,8 3,2 8 4 W 1032,0 10 60 0,0
24.03.2019 08:00:00 6,0 4,0 5 3 NW 1031,9 11 36 0,0
24.03.2019 07:00:00 4,4 2,8 4 2 - 1031,3 10 0 0,0
24.03.2019 06:00:00 4,4 2,8 5 3 N 1031,4 10 0 0,0
24.03.2019 05:00:00 4,0 3,0 4 2 - 1030,9 10 0 0,0
24.03.2019 04:00:00 3,9 2,7 2 1 WNW 1031,3 10 0 0,0
24.03.2019 03:00:00 3,9 2,3 2 1 - 1031,8 10 0 0,0
24.03.2019 02:00:00 4,6 2,4 4 2 NE 1032,2 10 0 0,0
24.03.2019 01:00:00 5,4 2,5 5 3 - 1032,9 10 0 0,0
24.03.2019 00:00:00 6,1 2,8 5 3 NE 1033,0 10 - 0,0
23.03.2019 23:00:00 5,0 1,9 9 5 E 1033,0 10 0 0,0
23.03.2019 22:00:00 6,2 2,7 11 6 E 1033,2 10 0 0,0
23.03.2019 21:00:00 8,1 2,2 13 7 E 1033,1 21 0 0,0
23.03.2019 20:00:00 9,3 5,1 15 8 E 1032,8 10 0 0,0
23.03.2019 19:00:00 11,1 2,7 11 6 ENE 1032,3 10 0 0,0
23.03.2019 18:00:00 12,0 2,5 9 5 NE 1031,8 10 18 0,0
23.03.2019 17:00:00 12,6 2,7 11 6 NE 1031,7 10 6 0,0
23.03.2019 16:00:00 13,1 3,0 9 5 NE 1031,9 10 18 0,0
23.03.2019 15:00:00 13,4 3,2 11 6 NE 1032,1 10 18 0,0
23.03.2019 14:00:00 13,2 2,6 11 6 NE 1032,3 10 18 0,0
23.03.2019 13:00:00 13,0 2,6 9 5 NE 1032,6 10 18 0,0
23.03.2019 12:00:00 12,3 3,1 13 7 NNE 1032,6 10 0 0,0
23.03.2019 11:00:00 11,1 1,9 11 6 NNE 1032,8 10 0 0,0
23.03.2019 10:00:00 10,5 2,1 13 7 NNE 1032,5 10 0 0,0
23.03.2019 09:00:00 10,3 5,4 9 5 NE 1032,0 10 0 0,0
23.03.2019 08:00:00 10,1 7,5 5 3 - 1031,3 10 0 0,0
23.03.2019 07:00:00 9,2 7,4 4 2 - 1030,8 9 0 0,0
23.03.2019 06:00:00 8,9 7,3 2 1 NW 1030,2 8 0 0,0
23.03.2019 05:00:00 9,0 7,2 5 3 NW 1029,8 7 0 0,0
23.03.2019 04:00:00 8,8 7,4 9 5 W 1029,4 9 0 0,0
23.03.2019 03:00:00 8,7 7,3 8 4 WSW 1029,0 9 0 0,0
23.03.2019 02:00:00 8,5 7,2 5 3 WSW 1028,8 7 0 0,0
23.03.2019 01:00:00 7,7 7,0 8 4 SW 1028,6 7 0 0,0
23.03.2019 00:00:00 7,9 6,5 8 4 SW 1028,2 10 - 0,0
22.03.2019 23:00:00 9,0 6,5 11 6 WSW 1028,3 10 0 0,0
22.03.2019 22:00:00 10,2 6,9 13 7 WSW 1028,2 10 0 0,0
22.03.2019 21:00:00 10,5 6,7 13 7 SW 1028,1 10 0 0,0
22.03.2019 20:00:00 10,7 6,6 13 7 WSW 1027,9 10 0 0,0
22.03.2019 19:00:00 10,5 6,8 16 9 W 1028,1 30 0 0,0
22.03.2019 18:00:00 10,5 6,9 21 11 WSW 1027,5 18 0 0,0
22.03.2019 17:00:00 10,8 7,1 15 8 WSW 1027,1 19 0 0,0
22.03.2019 16:00:00 10,7 6,9 16 9 WSW 1027,2 10 0 0,0
22.03.2019 15:00:00 10,5 7,1 16 9 SW 1027,5 10 0 0,0
22.03.2019 14:00:00 10,3 7,3 15 8 SW 1027,7 15 0 0,0
22.03.2019 13:00:00 10,2 7,4 16 9 SW 1028,3 10 0 0,0
22.03.2019 12:00:00 9,8 7,2 15 8 SSW 1028,7 10 0 0,0
22.03.2019 11:00:00 9,4 6,9 16 9 SSW 1029,2 13 0 0,0
22.03.2019 10:00:00 9,3 6,7 16 9 SW 1029,3 10 0 0,0
22.03.2019 09:00:00 9,2 6,4 15 8 SW 1029,4 10 0 0,0
22.03.2019 08:00:00 9,0 6,2 16 9 SW 1029,5 10 0 0,0
22.03.2019 07:00:00 8,9 6,1 15 8 SW 1029,3 10 0 0,0
22.03.2019 06:00:00 9,0 6,4 13 7 SSW 1029,5 10 0 0,0
22.03.2019 05:00:00 9,1 6,4 15 8 S 1029,5 14 0 0,0
22.03.2019 04:00:00 9,6 6,6 13 7 SSW 1029,8 10 0 0,0
22.03.2019 03:00:00 10,2 6,6 15 8 S 1030,1 10 0 0,0
22.03.2019 02:00:00 10,8 7,0 11 6 SSW 1030,4 10 0 0,0
22.03.2019 01:00:00 11,1 7,5 9 5 S 1030,6 10 0 0,0
22.03.2019 00:00:00 10,7 8,1 11 6 SSE 1030,7 10 - 0,0
21.03.2019 23:00:00 11,9 7,9 9 5 SSW 1031,3 10 0 0,0
21.03.2019 22:00:00 12,0 8,7 4 2 N 1032,0 10 0 0,0
21.03.2019 21:00:00 12,1 8,6 5 3 - 1032,3 10 0 0,0
21.03.2019 20:00:00 12,7 8,7 5 3 - 1032,2 10 0 0,0
21.03.2019 19:00:00 12,7 8,4 9 5 WSW 1032,3 10 0 0,0
21.03.2019 18:00:00 13,0 8,5 5 3 WNW 1032,2 10 0 0,0
21.03.2019 17:00:00 13,5 8,7 8 4 NW 1032,2 10 0 0,0
21.03.2019 16:00:00 13,9 8,9 8 4 NW 1032,0 10 0 0,0
21.03.2019 15:00:00 13,7 8,6 8 4 WNW 1032,5 10 6 0,0
21.03.2019 14:00:00 13,8 8,7 9 5 W 1033,2 10 0 0,0
21.03.2019 13:00:00 13,6 9,4 9 5 W 1033,8 45 0 0,0
21.03.2019 12:00:00 12,9 8,7 8 4 W 1034,1 10 0 0,0
21.03.2019 11:00:00 12,1 8,3 11 6 WSW 1034,3 10 0 0,0
21.03.2019 10:00:00 11,6 8,7 11 6 WSW 1034,1 10 0 0,0
21.03.2019 09:00:00 11,0 8,7 13 7 SW 1034,0 10 0 0,0
21.03.2019 08:00:00 10,3 8,6 11 6 SSW 1033,8 10 0 0,0
21.03.2019 07:00:00 9,4 8,3 13 7 SW 1033,5 9 0 0,0
21.03.2019 06:00:00 8,9 8,2 11 6 W 1033,4 6 0 0,0
21.03.2019 05:00:00 9,2 7,7 11 6 W 1033,0 10 0 0,0
21.03.2019 04:00:00 9,4 7,4 15 8 W 1032,8 10 0 0,0
21.03.2019 03:00:00 9,6 7,6 16 9 W 1032,9 10 0 0,0
21.03.2019 02:00:00 9,4 7,5 11 6 SSW 1033,1 10 0 0,0
21.03.2019 01:00:00 9,6 7,5 13 7 SSW 1033,2 10 0 0,0
21.03.2019 00:00:00 10,1 7,4 15 8 SW 1033,5 10 - 0,0
20.03.2019 23:00:00 10,6 7,4 16 9 WSW 1033,5 10 0 0,0
20.03.2019 22:00:00 10,9 7,7 16 9 SW 1033,5 40 0 0,0
20.03.2019 21:00:00 11,5 8,0 15 8 SW 1033,3 10 0 0,0
20.03.2019 20:00:00 11,9 7,8 13 7 WSW 1033,1 10 0 0,0
20.03.2019 19:00:00 12,1 7,8 15 8 WSW 1033,0 10 0 0,0

tt = temperature
td = dewpoint
ff = wind speed
dd = wind direction
ppp = reduced air pressure
vv = visibility
sd = sunshine duration
rr = precipitation

Next stations